Regional Weather Roundup
Issued by NWS

Home | Current Version | Previous Version | Text Only | Print | Product List | Glossary On
Versions: 1 2 3 4 5 6 7 8 9 10 11 12 13 14 15 16 17 18 19 20 21 22 23 24 25 26 27 28 29 30 31 32 33 34 35 36 37 38 39 40 41 42 43 44 45 46 47 48 49 50
000
ASUS43 KDTX 020910
RWRMI
MICHIGAN HOURLY REGIONAL WEATHER ROUNDUP
NATIONAL WEATHER SERVICE DETROIT/PONTIAC MI
500 AM EDT TUE JUN 02 2015

NOTE: "FAIR" INDICATES FEW OR NO CLOUDS BELOW 12,000 FEET WITH NO
SIGNIFICANT WEATHER AND/OR OBSTRUCTION TO VISIBILITY.

MIZ047>049-052>055-059>063-066>070-074>076-081>083-021000-
SOUTHEAST LOWER MICHIGAN

CITY           SKY/WX    TMP DP  RH WIND       PRES   REMARKS
ADRIAN         CLEAR     44  42  93 N5        30.19R
ALMA           CLEAR     36  36 100 CALM      30.22S
ANN ARBOR      CLEAR     41  39  93 NE3       30.18S
BAD AXE        CLEAR     35  33  94 CALM      30.22R
CARO           CLEAR     34  33  98 CALM      30.21R
DETROIT CITY   PTCLDY    47  37  68 N3        30.19S
DETROIT        MOCLDY    47  39  74 N5        30.19S
FLINT          CLEAR     42  38  85 CALM      30.21S
GROSSE ILE     CLEAR     48  41  76 N3        30.17S
HILLSDALE      CLEAR     42  42 100 CALM      30.18R
HOWELL         MOCLDY    41  40  95 CALM      30.19R

CITY           SKY/WX    TMP DP  RH WIND       PRES   REMARKS
JACKSON        CLEAR     41  39  93 CALM      30.20R
LAMBERTVILLE   CLEAR     45  41  87 CALM      30.18S
LANSING        CLEAR     41  37  86 CALM      30.21R
LAPEER         FAIR      37  36  98 CALM      30.20S
MASON          CLEAR     39  38  95 CALM      30.20R
MONROE         CLEAR     48  39  71 N5        30.16S
MT. CLEMENS    PTCLDY    44  39  83 N5        30.16F
PONTIAC        CLEAR     45  37  73 CALM      30.18S
PORT HOPE        N/A     48  37  65 NE3       30.20S
PORT HURON     CLEAR     39  39 100 CALM      30.19F
TRI CITIES     CLEAR     42  36  79 CALM      30.22R
MIDLAND        FAIR      34  33  97 CALM      30.22S
TROY           PTCLDY    47  37  68 NE3       30.20S
SAGINAW HB     CLEAR     41  41 100 CALM      30.21S
$$
MIZ043>046-050>051-056>058-064>065-071>073-077>080-021000-
SOUTHWEST LOWER MICHIGAN

CITY           SKY/WX    TMP DP  RH WIND       PRES   REMARKS
BATTLE CREEK   CLEAR     44  41  89 CALM      30.20R
BENTON HARBOR  CLEAR     41  41 100 CALM      30.18R
BIG RAPIDS     CLEAR     38  35  87 CALM      30.21S
COLDWATER      CLEAR     41  41  98 CALM      30.18S FOG
FREMONT        FAIR      45  33  64 E5        30.21S
HOLLAND        CLEAR     44  38  79 NE3       30.20S
GRAND RAPIDS   CLEAR     42  38  85 NE5       30.21R
IONIA          FAIR      40  37  89 NE3       30.20S
KALAMAZOO      CLEAR     45  41  86 CALM      30.20R
LUDINGTON      CLEAR     40  36  85 E3        30.20F
MARSHALL       CLEAR     41  40  96 CALM      30.19R
MOUNT PLEASANT   N/A     37  36  96 CALM      30.22S FOG
MUSKEGON       CLEAR     44  36  73 E5        30.21S
SOUTH HAVEN    CLEAR     45  41  86 CALM      30.19S
$$
MIZ016>042-021000-
NORTHERN LOWER MICHIGAN

CITY           SKY/WX    TMP DP  RH WIND       PRES   REMARKS
ALPENA         CLEAR     37  34  89 W3        30.23R
BEAVER ISLAND  CLEAR     35  34  97 CALM      30.22F
BELLAIRE       CLEAR     36  34  94 CALM      30.23R
CADILLAC       CLEAR     35  33  94 CALM      30.21S
CHARLEVOIX     CLEAR     40  35  84 SE5       30.25S
FRANKFORT      CLEAR     41  35  79 CALM      30.20F
GAYLORD        CLEAR     36  33  89 CALM      30.23R
GRAYLING       CLEAR     30  28  94 CALM      30.23S
HARBOR SPRINGS CLEAR     38  33  81 CALM      30.23S
HOUGHTON LAKE  FOG       34  33  96 CALM      30.23S VSB 3/4
MANISTEE       CLEAR     39  36  87 E5        30.21F
OSCODA         CLEAR     37  33  86 CALM      30.22R
PELLSTON       CLEAR     31  29  92 CALM      30.23S
ROGERS CITY    CLEAR     37  34  92 CALM      30.24S
TRAVERSE CITY  CLEAR     41  37  86 CALM      30.21S
$$
MIZ007>008-015-021000-
EASTERN UPPER MICHIGAN

CITY           SKY/WX    TMP DP  RH WIND       PRES   REMARKS
KINROSS        CLEAR     43  36  75 CALM      30.22F
MACKINAC ISLAN CLEAR     43  33  68 E3        30.22S
NEWBERRY       PTCLDY    39  35  85 S5        30.21S
S. S. MARIE    CLEAR     39  35  86 E3        30.22F
MUNISING         N/A     37  32  82 CALM      30.19F
$$
MIZ004>006-011>014-085-021000-
CENTRAL UPPER MICHIGAN

CITY           SKY/WX    TMP DP  RH WIND       PRES   REMARKS
MANISTIQUE     CLEAR     33  30  88 CALM      30.21S
ESCANABA       CLEAR     36  32  87 CALM      30.20S
MENOMINEE      CLEAR     39  36  87 NW3       30.20R
SAWYER-GWINN   CLEAR     34  31  88 CALM      30.19F
$$
MIZ001>003-009>011-084-021000-
WESTERN UPPER MICHIGAN

CITY           SKY/WX    TMP DP  RH WIND       PRES   REMARKS
IRON MOUNTAIN  CLEAR     34  32  92 NW3       30.18F
HOUGHTON       CLEAR     44  34  67 S6        30.16S
COPPER HARBOR    N/A     49  33  54 SW10      30.15S
IRONWOOD       PTCLDY    50  37  62 S9G16     30.13R
$$

ABBREVIATIONS USED IN REMARKS
   TC - TEMPERATURE IN CELSIUS
  WCI - WIND CHILL INDEX
   HX - HEAT INDEX
  VSB - VISIBILITY



USA.gov is the U.S. government's official web portal to all federal, state and local government web resources and services.